Regional Weather Roundup
Issued by NWS Newport/Morehead, NC

Current Version | Previous Version | Text Only | Print | Product List | Glossary On
Versions: 1 2 3 4 5 6 7 8 9 10 11 12 13 14 15 16 17 18 19 20 21 22 23 24 25 26 27 28 29 30 31 32 33 34 35 36 37 38 39 40 41 42 43 44 45 46 47 48 49 50
000
ASUS42 KMHX 300113
RWRMHX
WEATHER ROUNDUP FOR EASTERN NORTH CAROLINA
NATIONAL WEATHER SERVICE NEWPORT/MOREHEAD CITY NC
900 PM EDT FRI APR 29 2016

NOTE: "FAIR" INDICATES FEW OR NO CLOUDS BELOW 12,000 FEET
WITH NO SIGNIFICANT WEATHER AND/OR OBSTRUCTIONS TO VISIBILITY

NCZ015>017-031-032-045>047-102-103-300200-
NORTH COAST

CITY           SKY/WX    TMP DP  RH WIND       PRES   REMARKS
EDENTON        CLOUDY    62  61  95 CALM      30.02R
ELIZABETH CITY CLOUDY    58  55  90 N5        30.03R
KITTY HAWK     CLOUDY    55  54  96 N6        30.01R
MANTEO         NOT AVBL

$$

NCZ045>047-081-094-103-104-300200-
CENTRAL COAST

CITY           SKY/WX    TMP DP  RH WIND       PRES   REMARKS
FRISCO         MOCLDY    61  58  90 NE9       30.00R
SWANQUARTER    NOT AVBL

$$

NCZ095-097-098-100-101-300200-
SOUTHERN COAST

CITY           SKY/WX    TMP DP  RH WIND       PRES   REMARKS
BEAUFORT       PTCLDY    62  58  86 N7        29.99R
CEDAR ISLAND   NOT AVBL
JACKSONVILLE   CLEAR     67  58  72 NE8       29.98R
PINEY ISLAND   NOT AVBL
WILMINGTON     CLEAR     66  61  84 CALM      29.98R


$$

NCZ011>013-027>030-043-044-078>080-089-090>093-098-300200-
COASTAL PLAIN

CITY           SKY/WX    TMP DP  RH WIND       PRES   REMARKS
AHOSKIE        CLOUDY    61  57  87 CALM      30.02R
CLINTON        CLEAR     68  61  78 CALM      29.97S
ELIZABETHTOWN  CLEAR     71  59  66 CALM      29.97R
GOLDSBORO      CLEAR     64  64 100 NE5       29.98R
GREENVILLE     CLEAR     61  61 100 CALM      30.02S
HAVELOCK       CLEAR     64  58  80 NE5       30.00R
KENANSVILLE    CLEAR     62  57  84 CALM      29.99R
KINSTON        PTCLDY    64  59  82 CALM      30.01R
NEW BERN       CLEAR     60  56  86 CALM      30.01R
RICHLANDS      CLEAR     64  59  83 E6        29.99R
ROCKY MOUNT    CLEAR     62  58  86 CALM      29.99S
WASHINGTON     CLEAR     60  58  93 CALM      30.01R
WHITEVILLE     PTCLDY    71  65  81 S6        29.97R

$$

AMZ130-135-150-152-154-156-158-170-250-252-270-ANZ085-086-088-633-658-670-300200-
MARINE OBSERVATIONS

STATION/POSITION TIME  TEMP    WIND        PRES    WAVE   SWELL
                       AIR SEA DIR/SP/G            HT/PER HT/PER
                 (UTC) (F)     (DEG/KT/KT) (MB)    (FT/S) (FT/S)
CHESAPEAKE LIGHT 0000   53      30/ 16/ 16 1016.7
64 E VA BEACH    2350   53 54  360/ 16/ 19 1015.0    5/ 7   3/ 7
DUCK             0000      67              1015.4
2 E DUCK         0011      58                N/A     4/ 7
OREGON INLET     0000      63              1015.7
13E OREGON INLT  0100      58                N/A     5/ 5
HATTERAS CG      0000      71              1015.0
DIAMOND BUOY     2350   61 74   20/ 19/ 23 1014.8    4/ 5   2/ 9
CAPE LOOKOUT     0000   67     350/ 12/ 13 1014.9
BEAUFORT LAB     0000      69              1014.5
30 SE NEW RVR IN 0025      68                N/A     2/ 6
27 SE WRIGHTSVLE 0008   69 69   80/  6/  8 1015.1
5 SE WRIGHTSVLE  NOT AVBL
225 S CAPE HAT   2350   72 71  250/  8/ 10 1013.9    3/ 6   3/ 6
41 SE CHARLESTON 2350   73 72  100/  8/ 10 1014.0    2/10   2/10

$$




USA.gov is the U.S. government's official web portal to all federal, state and local government web resources and services.